Miscellaneous Local Product
Issued by NWS North Platte, NE

Home | Current Version | Previous Version | Text Only | Print | Product List | Glossary On
Versions: 1 2 3 4 5 6 7 8 9 10 11 12 13 14 15 16 17 18 19 20 21 22 23 24 25 26 27 28 29 30 31 32 33 34 35 36 37 38 39 40 41 42 43 44 45 46 47 48 49 50
712
AXUS43 KLBF 261810
MISLBF


WESTERN AND NORTH CENTRAL NEBRASKA HOURLY WEATHER ROUNDUP
NATIONAL WEATHER SERVICE NORTH PLATTE NE
100 PM CDT SUN MAR 26 2017

NOTE: "FAIR" INDICATES FEW OR NO CLOUDS BELOW 12,000 FEET WITH NO
SIGNIFICANT WEATHER AND/OR OBSTRUCTIONS TO VISIBILITY.

NOTE: STATIONS NOT REPORTING VARIABLES SUCH AS SKY/WEATHER OR
PRESSURE ARE PROVIDED BY RAWS AND APRS NETWORKS AND ARE NOT UNDER
NATIONAL WEATHER SERVICE QUALITY CONTROL.

...OBSERVATIONS IN AND NEAR THE EASTERN PANHANDLE OF NEBRASKA...

CITY           SKY/WX    TMP DP  RH WIND       PRES   REMARKS
PINE RIDGE     CLOUDY    51  39  63 N9        29.90F
CHADRON        CLOUDY    49  38  65 N13       29.93R
ALLIANCE       CLOUDY    48  37  65 S12       29.90R
SIDNEY         CLOUDY    47  36  65 VRB3      29.91S
CRESCENT LAKE    N/A     45  42  89 NW12G18     N/A
$$

...OBSERVATIONS IN NORTHERN NEBRASKA AND FAR SOUTHERN SOUTH DAKOTA...

CITY           SKY/WX    TMP DP  RH WIND       PRES   REMARKS
WINNER         CLOUDY    45  39  79 SE3       29.93S
VALENTINE      CLOUDY    54  38  54 CALM      29.89F
THEDFORD       MOSUNNY   52  42  70 SE8       29.89F
AINSWORTH      CLOUDY    44  40  86 CALM      29.91S
O`NEILL        CLOUDY    41  41 100 CALM      29.93F
ORD            CLOUDY    44  39  82 W5        29.92R
BROKEN BOW     MOSUNNY   50  42  74 CALM      29.89F
VALENTINE NWR    N/A     51  41  69 CALM        N/A
HALSEY           N/A     48  39  71 SE7         N/A
BUTTE            N/A     41  39  94 CALM        N/A
CHAMBERS         N/A     48  42  80 CALM        N/A
EWING            N/A     42  41  97 N3          N/A
$$

...OBSERVATIONS IN SOUTHWEST NEBRASKA AND FAR NORTHEAST COLORADO...

CITY           SKY/WX    TMP DP  RH WIND       PRES   REMARKS
HOLYOKE        FAIR      54  45  71 N7        29.90S
IMPERIAL       CLOUDY    46  40  79 N5        29.89F
OGALLALA       PTSUNNY   55  44  66 W9        29.88F
NORTH PLATTE   CLOUDY    45  39  79 W5        29.91F
MCCOOK         CLOUDY    44  42  93 NE10      29.89F
LEXINGTON      CLOUDY    43  39  86 CALM      29.91S
STAPLETON        N/A     47  41  79 CALM        N/A
GOTHENBURG       N/A     45  36  71 CALM        N/A
CALLAWAY         N/A     46  40  81 CALM        N/A
$$

...OBSERVATIONS IN CENTRAL LINCOLN COUNTY AREA...

CITY           SKY/WX    TMP DP  RH WIND       PRES   REMARKS
N.P. AIRPORT   CLOUDY    45  39  79 W5        29.91F
N.P. DOWNTOWN    N/A     47  41  81 CALM        N/A
N.P. SOUTHEAST   N/A     45  39  81 CALM        N/A
N.P. HILLCREST   N/A     47  41  81 SW3         N/A
$$

...SOME OBSERVATIONS FROM AROUND THE REGION...

CITY           SKY/WX    TMP DP  RH WIND       PRES   REMARKS
DENVER         PTSUNNY   50  35  56 NE15      29.89S
LIMON          CLOUDY    45  38  76 N20       29.88R
ASPEN          CLOUDY    44  31  60 CALM      29.96R
LARAMIE        PTSUNNY   41  32  70 N21G26    29.94R
CASPER         CLOUDY    43  34  70 VRB6      29.98S
CHEYENNE       CLOUDY    38  34  85 N17       29.92S WCI  28
SCOTTSBLUFF    CLOUDY    54  35  48 N13       29.91S
GRAND ISLAND   CLOUDY    46  43  89 N6        29.92F
OMAHA          CLOUDY    45  39  79 NW6       29.93F
SIOUX FALLS    CLOUDY    44  37  76 NE5       29.93S
PIERRE         LGT RAIN  41  38  89 SE8       29.94S
RAPID CITY     LGT RAIN  42  38  85 N16       29.93S
BISMARCK       SUNNY     54  37  52 CALM      29.93S
KANSAS CITY    CLOUDY    49  43  80 W9        29.93S
HILL CITY      CLOUDY    46  42  86 E12       29.90S
WICHITA        PTSUNNY   53  46  77 E12       29.86F
DODGE CITY     CLOUDY    44  42  93 E13       29.80S FOG
OKLAHOMA CITY  CLOUDY    73  50  44 SE23G31   29.77F
DALLAS         PTSUNNY   79  63  57 S18       29.84F
AMARILLO       SUNNY     72  27  18 W23G30    29.72S
$$




USA.gov is the U.S. government's official web portal to all federal, state and local government web resources and services.